Location: Great Snoring
(52.8667°N, 0.8833°E)
Time: 14:57:17
(UTC+00:00)

Cosmos 2150 Rocket - Pass Details

Date: 19 May 2025
Orbit: 745 x 804 km, 74.0° (Epoch: 17 June)

Event Time Altitude Azimuth Distance (km) Brightness Sun altitude
Rises 21:31:55 0° 333° (NNW) 3,291 9.4 -11.0°
Reaches altitude 10° 21:34:18 10° 333° (NNW) 2,366 8.1 -11.2°
Maximum altitude 21:39:42 84° 247° (WSW) 810 4.1 -11.6°
Enters shadow 21:44:06 16° 160° (SSE) 1,986 5.5 -12.0°
